Regional Weather Roundup
Issued by NWS

Home | Current Version | Previous Version | Text Only | Print | Product List | Glossary Off
Versions: 1 2 3 4 5 6 7 8 9 10 11 12 13 14 15 16 17 18 19 20 21 22 23 24 25 26 27

000
ASUS45 KCYS 250410
RWRWY

WYOMING REGIONAL WEATHER ROUNDUP
NATIONAL WEATHER SERVICE CHEYENNE WY
1000 PM MDT WED MAY 24 2017

NOTE:  "FAIR" INDICATES FEW OR NO CLOUDS BELOW 12,000 FEET
WITH NO SIGNIFICANT WEATHER AND/OR OBSTRUCTIONS TO VISIBILITY.

WYZ001-250500-
YELLOWSTONE NATIONAL PARK

CITY           SKY/WX    TMP DP  RH WIND       PRES   REMARKS
LK YELLOWSTONE   N/A     43  20  39 VRB3      29.66R
W YELLOWSTONE  NOT AVBL

$$
WYZ002>013-054>058-071-098>099-250500-
NORTHERN WYOMING

CITY           SKY/WX    TMP DP  RH WIND       PRES   REMARKS
JACKSON        FAIR      55  10  16 W17G30    29.58F
CODY           FAIR      55  28  35 N7        29.53R
GREYBULL       FAIR      65  26  23 NW24G30   29.39R
WORLAND        FAIR      62  35  36 N10       29.43R
SHERIDAN       MOCLDY    55  39  54 NW8       29.49R
BUFFALO        FAIR      53  39  59 N12       29.52R
GILLETTE       FAIR      58  40  51 N14       29.46R
HULETT         FAIR      59  50  72 NW20G30   29.44R
NEWCASTLE      FAIR      63  45  51 NW20G29   29.40R

$$
WYZ014>020-022>026-101>103-250500-
CENTRAL WYOMING

CITY           SKY/WX    TMP DP  RH WIND       PRES   REMARKS
BIG PINEY      MOCLDY    48  44  86 CALM      29.68R
PINEDALE       FAIR      45  45 100 CALM      29.68S
DUBOIS         FAIR      54  21  28 NW22      29.57S
LANDER         FAIR      57  41  55 S8        29.51R
RIVERTON       FAIR      57  42  57 SW13      29.51F
CASPER         FAIR      66  38  35 W17G28    29.53R
DOUGLAS        FAIR      66  39  37 W7        29.48R

$$
WYZ021-027>030-104>119-250500-
SOUTHERN WYOMING

CITY           SKY/WX    TMP DP  RH WIND       PRES   REMARKS
EVANSTON       MOCLDY    50  45  83 SW8       29.71F
KEMMERER       LGT RAIN  48  43  81 SW30G45   29.72R
FORT BRIDGER   MOCLDY    54  42  63 W14G23    29.72F
ROCK SPRINGS   CLOUDY    61  37  41 W10       29.68R
DIXON            N/A     58  39  48 W18G26    29.70R
RAWLINS        FAIR      57  39  51 W12       29.68R
LARAMIE        FAIR      51  33  50 SW8       29.69R
CHEYENNE       FAIR      57  38  48 SW7       29.63R
TORRINGTON     FAIR      64  43  46 SW8       29.44R

$$




USA.gov is the U.S. government's official web portal to all federal, state and local government web resources and services.